[[{"header":{"parameterUnit":"m.s-1","parameterCategory":1,"la1":30.2991,"la2":30.254,"lo1":-89.0895,"lo2":-89.0444,"dy":0.0017,"dx":0.0017,"nx":28,"ny":28,"refTime":"2023-10-13T03:00:00:Z","depth":0,"parameterNumber":2,"parameterNumberName":"U-component_of_WINDS"},"data":[0,0,0,0,0,0,0,0,0,0,0,0,0,0,0,0,0,0,0,0,0,0,0,0,0,0,0,0,0,0,0,0,0,0,0,0,0,0,0,0,0,0,0,0,0,0,0,0,0,0,0,0,0,0,0,0,0,0,1.8067,1.8066,0,1.8042,1.8042,1.8041,1.7954,1.7952,1.795,1.7949,1.7925,1.7926,1.7927,0,0,0,0,0,0,0,0,0,0,0,0,0,1.8039,1.804,1.8067,1.8066,1.8066,1.8042,1.8042,1.8041,1.7955,1.7952,1.795,1.7948,1.7924,1.7926,1.7927,0,0,0,0,0,0,0,0,0,0,0,0,0,1.8037,1.8041,1.8067,1.802,1.8016,1.8042,1.8042,1.8041,1.7955,1.7952,1.7949,1.7947,1.7924,1.7925,1.7927,1.7997,0,0,1.7933,1.7933,0,0,0,0,0,0,0,0,1.8037,1.8038,1.8027,1.8023,1.8018,1.7998,1.8023,1.8027,1.7956,1.7978,1.7949,1.7945,1.7952,1.7951,1.7953,1.7996,1.7995,1.7933,1.7934,1.7935,1.7935,0,0,0,0,0,0,0,1.8037,1.8038,1.8057,1.8027,1.8022,1.8,1.7997,1.8023,1.7982,1.7976,1.797,1.7968,1.7949,1.7951,1.7952,1.7995,1.7933,1.7934,1.7935,1.7936,1.8092,1.8095,0,0,0,0,0,0,1.8044,1.8039,1.8058,1.8056,1.8021,1.8003,1.7999,1.8008,1.7981,1.7974,1.797,1.7964,1.795,1.795,1.795,1.8028,1.7935,1.7936,1.7937,1.8089,1.8093,1.8096,0,0,0,0,0,0,1.8044,1.8047,1.8059,1.8046,1.8046,1.8007,1.8017,1.8009,1.8011,1.7977,1.7969,1.7981,1.7947,1.7948,1.7986,1.8026,1.7937,1.7939,1.8085,1.809,1.8094,1.8187,0,0,0,0,0,0,1.8043,1.8047,1.8073,1.8047,1.8047,1.8095,1.802,1.801,1.8014,1.8006,1.7984,1.7978,1.7945,1.7983,1.7987,1.8027,1.794,1.8081,1.8087,1.8093,1.818,1.8194,1.8206,0,0,0,0,0,1.8043,1.8101,1.8075,1.8078,1.8079,1.8097,1.8097,1.8057,1.8018,1.8044,1.8022,1.7979,1.8022,1.7988,1.7992,1.8033,1.8079,1.8086,1.8092,1.8174,1.8191,1.8206,0,0,0,0,0,0,1.8134,1.8097,1.8067,1.8119,1.8112,1.8082,1.8114,1.8077,1.8081,1.8073,1.8024,1.802,1.8064,1.8052,1.8015,1.8098,1.8043,1.8051,1.8104,1.812,1.8133,1.8134,1.7942,0,0,0,0,0,1.816,1.8178,1.8145,1.8194,1.8191,1.8154,1.816,1.813,1.812,1.8117,1.8098,1.809,1.8102,1.811,1.8119,1.8178,1.8171,1.8208,1.8222,1.8232,1.8239,1.8267,1.8283,1.8119,1.8118,1.8118,0,0,1.8214,1.8196,1.8211,1.8211,1.8202,1.8221,1.8151,1.8175,1.8188,1.8121,1.8154,1.814,1.8129,1.8177,1.8197,1.8168,1.8283,1.8241,1.825,1.8251,1.8276,1.8292,1.8306,1.8123,1.8122,1.8122,0,0,1.8322,1.8311,1.8349,1.8341,1.8327,1.8302,1.8311,1.8287,1.8274,1.8307,1.8256,1.8272,1.8293,1.8286,1.8286,1.839,1.835,1.8395,1.8462,1.849,1.8503,1.8514,1.8549,1.8563,1.8402,1.8402,1.8402,0,1.8391,1.8418,1.8374,1.84,1.8401,1.834,1.8378,1.8372,1.8363,1.8365,1.8333,1.8357,1.8346,1.839,1.8415,1.8418,1.8426,1.8396,1.8505,1.8516,1.8525,1.8558,1.8572,1.8408,1.8407,1.8406,1.8406,0,1.8502,1.8521,1.8554,1.8544,1.8549,1.8582,1.8543,1.8553,1.8522,1.85,1.8534,1.8517,1.8521,1.8529,1.8501,1.857,1.8552,1.8514,1.8457,1.8547,1.8577,1.8589,1.8415,1.8413,1.8412,1.841,0,0,1.8666,1.8632,1.8644,1.8638,1.8618,1.8632,1.8661,1.8664,1.8673,1.8669,1.869,1.871,1.8673,1.8673,1.8642,1.8667,1.8748,1.8625,1.8624,1.8647,1.8821,1.8848,1.8863,1.8722,1.8725,1.8726,1.8821,0,1.8767,1.8813,1.8774,1.8828,1.8844,1.8786,1.8811,1.8801,1.8781,1.8792,1.877,1.8783,1.8735,1.8734,1.8756,1.8734,1.8782,1.8727,1.8741,1.8742,1.8744,1.8879,1.8909,1.8998,1.8832,1.8834,1.8836,0,1.889,1.889,1.8945,1.8919,1.8924,1.8948,1.8946,1.8957,1.8945,1.8928,1.8927,1.889,1.8916,1.8861,1.8896,1.8859,1.8863,1.8853,1.8855,1.8853,1.8793,1.8879,1.9026,1.9039,1.8854,1.8853,1.8851,0,1.9002,1.9015,1.9049,1.9046,1.9018,1.9035,1.9024,1.9009,1.9012,1.9011,1.9013,1.9015,1.9016,1.9019,1.8983,1.8947,1.9021,1.8965,1.9007,1.9008,1.9024,1.9023,1.9172,1.903,1.903,1.903,1.903,0,1.9117,1.9152,1.9098,1.9119,1.9156,1.9111,1.915,1.9133,1.912,1.9136,1.9087,1.9103,1.9055,1.9066,1.9039,1.907,1.9072,1.9058,1.905,1.9061,1.9063,1.9062,1.9054,1.9033,1.9033,1.9032,1.9031,0,1.9247,1.9212,1.9245,1.9215,1.9208,1.9237,1.9211,1.9229,1.9206,1.9226,1.9229,1.9192,1.9202,1.9167,1.9172,1.9153,1.9199,1.9182,1.9203,1.9197,1.924,1.9236,1.9392,1.9409,1.9259,1.9261,1.9262,0,1.9321,1.9347,1.9319,1.9326,1.9317,1.9329,1.9332,1.9289,1.9294,1.9281,1.93,1.9306,1.9308,1.9328,1.9301,1.9304,1.9285,1.934,1.9286,1.9295,1.9283,1.9281,1.9282,1.9351,1.9352,1.9354,1.9355,0,1.9456,1.9437,1.9443,1.9442,1.9446,1.9444,1.9438,1.9447,1.94,1.9408,1.9418,1.942,1.9424,1.943,1.9428,1.9416,1.9378,1.9373,1.9382,1.9393,1.9403,1.9395,1.9231,1.9369,1.9367,1.9366,1.9366,1.9365,1.9559,1.9578,1.9561,1.9568,1.9559,1.9554,1.9569,1.9546,1.9553,1.9552,1.9527,1.9541,1.9527,1.9519,1.9512,1.9522,1.9497,1.9511,1.9514,1.9518,1.9524,1.9403,1.9522,1.9521,1.9521,1.9521,1.952,0,1.9689,1.9675,1.9682,1.9675,1.968,1.9643,1.9635,1.9642,1.9655,1.9644,1.9647,1.9657,1.9663,1.9637,1.9639,1.9652,1.9634,1.9653,1.9651,1.9648,1.9548,1.9539,1.9668,1.9668,1.9667,1.9667,1.9667,1.9667,1.9757,1.9787,1.9766,1.979,1.9776,1.9788,1.9786,1.9781,1.9772,1.9786,1.9789,1.9772,1.9755,1.9755,1.9758,1.975,1.9752,1.9778,1.9764,1.967,1.9656,1.9642,1.9632,1.9779,1.9779,1.9862,1.9863,1.9864]},{"header":{"parameterUnit":"m.s-1","parameterCategory":1,"la1":30.2991,"la2":30.254,"lo1":-89.0895,"lo2":-89.0444,"dy":0.0017,"dx":0.0017,"nx":28,"ny":28,"refTime":"2023-10-13T03:00:00:Z","depth":0,"parameterNumber":3,"parameterNumberName":"V-component_of_WINDS"},"data":[0,0,0,0,0,0,0,0,0,0,0,0,0,0,0,0,0,0,0,0,0,0,0,0,0,0,0,0,0,0,0,0,0,0,0,0,0,0,0,0,0,0,0,0,0,0,0,0,0,0,0,0,0,0,0,0,0,0,0.6465,0.6465,0,0.6427,0.6426,0.6426,0.637,0.6369,0.6368,0.6367,0.6329,0.6329,0.6329,0,0,0,0,0,0,0,0,0,0,0,0,0,0.649,0.649,0.6465,0.6465,0.6464,0.6427,0.6426,0.6426,0.637,0.6369,0.6368,0.6367,0.6329,0.6329,0.6329,0,0,0,0,0,0,0,0,0,0,0,0,0,0.6469,0.649,0.6465,0.6432,0.6429,0.6427,0.6426,0.6425,0.6371,0.6369,0.6368,0.6366,0.6329,0.6329,0.6329,0.6357,0,0,0.6328,0.6328,0,0,0,0,0,0,0,0,0.647,0.6468,0.6437,0.6434,0.643,0.6402,0.6421,0.6402,0.6371,0.6393,0.6367,0.6366,0.6355,0.6352,0.6348,0.6355,0.6353,0.6328,0.6328,0.6328,0.6328,0,0,0,0,0,0,0,0.6471,0.6469,0.645,0.6437,0.6433,0.6419,0.6414,0.6417,0.6382,0.6391,0.6387,0.6383,0.6352,0.6348,0.6347,0.6353,0.6328,0.6328,0.6328,0.6328,0.6378,0.638,0,0,0,0,0,0,0.6478,0.6471,0.6451,0.6449,0.6447,0.642,0.6414,0.6412,0.6382,0.6376,0.6384,0.638,0.6349,0.6347,0.6345,0.6375,0.6328,0.6328,0.6328,0.6377,0.6379,0.638,0,0,0,0,0,0,0.6479,0.6477,0.6453,0.6458,0.6454,0.6421,0.6419,0.6412,0.6408,0.6377,0.637,0.6386,0.6348,0.6346,0.6354,0.6373,0.6328,0.6328,0.6375,0.6378,0.638,0.6434,0,0,0,0,0,0,0.648,0.6477,0.6488,0.6459,0.6454,0.6462,0.642,0.6413,0.6408,0.6403,0.6378,0.6372,0.6347,0.6354,0.6354,0.6371,0.6328,0.6373,0.6376,0.6379,0.6431,0.6438,0.6445,0,0,0,0,0,0.6481,0.6505,0.6488,0.6486,0.6466,0.6463,0.646,0.6431,0.641,0.642,0.6399,0.6373,0.6371,0.6356,0.6354,0.6373,0.6372,0.6375,0.6379,0.6428,0.6437,0.6444,0,0,0,0,0,0,0.6537,0.6501,0.6482,0.6498,0.6484,0.6454,0.6466,0.6442,0.6434,0.6429,0.6393,0.6388,0.64,0.6387,0.6371,0.6397,0.6367,0.637,0.6405,0.6413,0.642,0.6423,0.6327,0,0,0,0,0,0.6552,0.6552,0.652,0.6537,0.6531,0.65,0.6497,0.6475,0.646,0.6454,0.6434,0.642,0.6416,0.6414,0.6409,0.6429,0.6422,0.644,0.6447,0.6453,0.6456,0.6464,0.6472,0.6391,0.6391,0.6391,0,0,0.6581,0.6561,0.6564,0.6548,0.6535,0.6535,0.6495,0.6498,0.6498,0.6454,0.646,0.6445,0.6427,0.6441,0.6446,0.6431,0.6477,0.6457,0.6462,0.6462,0.6469,0.6476,0.6483,0.6393,0.6393,0.6392,0,0,0.6635,0.6621,0.6633,0.662,0.66,0.6579,0.6582,0.6555,0.6543,0.6548,0.6515,0.6515,0.6509,0.6497,0.649,0.6538,0.6513,0.6538,0.6573,0.6582,0.6588,0.6594,0.661,0.6616,0.6541,0.6541,0.6541,0,0.6675,0.6675,0.6642,0.6647,0.664,0.66,0.6611,0.6601,0.658,0.6577,0.6559,0.655,0.6535,0.6545,0.6557,0.6553,0.6554,0.654,0.659,0.6595,0.66,0.6615,0.6621,0.6544,0.6544,0.6543,0.6543,0,0.6724,0.6724,0.6736,0.6716,0.6711,0.672,0.6688,0.6687,0.6665,0.6646,0.6651,0.6632,0.6621,0.6622,0.6601,0.6629,0.6619,0.6597,0.6566,0.6611,0.6625,0.663,0.6548,0.6547,0.6546,0.6546,0,0,0.6813,0.6774,0.6779,0.6769,0.6744,0.6743,0.6749,0.6738,0.6737,0.6725,0.6728,0.6724,0.6702,0.6694,0.6672,0.6679,0.6717,0.6655,0.6654,0.6667,0.6745,0.6761,0.6769,0.6701,0.6701,0.6702,0.6746,0,0.6861,0.6869,0.684,0.6855,0.6854,0.6815,0.682,0.6805,0.6787,0.6783,0.6763,0.676,0.6732,0.6727,0.6733,0.6712,0.6732,0.6708,0.6703,0.6703,0.6708,0.6776,0.6794,0.6836,0.6751,0.6752,0.6753,0,0.6919,0.6909,0.6924,0.6896,0.6895,0.69,0.6886,0.6884,0.6866,0.6852,0.6842,0.6816,0.6819,0.679,0.6794,0.6778,0.6774,0.6763,0.6764,0.6762,0.673,0.6775,0.6849,0.6855,0.6761,0.676,0.676,0,0.6982,0.6971,0.6978,0.6971,0.694,0.6944,0.6931,0.6911,0.6906,0.6894,0.689,0.688,0.6874,0.6866,0.6837,0.6819,0.6844,0.6813,0.6832,0.6832,0.6838,0.6838,0.6912,0.6837,0.6837,0.6837,0.6837,0,0.7039,0.7049,0.7006,0.701,0.7021,0.6986,0.6997,0.6981,0.6963,0.6963,0.6929,0.693,0.6892,0.6889,0.6866,0.6872,0.687,0.6858,0.6852,0.6861,0.6862,0.6857,0.6853,0.6839,0.6838,0.6838,0.6838,0,0.711,0.7082,0.7087,0.7056,0.7048,0.7057,0.703,0.7033,0.7012,0.7013,0.7011,0.6978,0.6972,0.6943,0.693,0.6915,0.6928,0.6916,0.6934,0.693,0.695,0.6949,0.7023,0.7031,0.6952,0.6953,0.6954,0,0.7148,0.7155,0.7125,0.7122,0.711,0.7107,0.7101,0.7067,0.7063,0.7042,0.7047,0.7038,0.7029,0.7021,0.6996,0.6986,0.6973,0.6999,0.6971,0.6979,0.6972,0.6971,0.6971,0.7006,0.7007,0.7007,0.7008,0,0.7218,0.7203,0.7196,0.7184,0.7178,0.7167,0.7153,0.7153,0.7116,0.7112,0.7105,0.7098,0.7085,0.7076,0.7061,0.7047,0.7021,0.7017,0.7021,0.703,0.7039,0.7033,0.695,0.7016,0.7015,0.7014,0.7014,0.7014,0.7273,0.7277,0.7256,0.7249,0.7235,0.7223,0.7224,0.7203,0.7196,0.7182,0.7163,0.7158,0.7138,0.7115,0.7104,0.7099,0.7085,0.709,0.7091,0.7093,0.7097,0.7041,0.7097,0.7096,0.7096,0.7096,0.7096,0,0.734,0.7325,0.7319,0.7301,0.7295,0.727,0.7254,0.7251,0.7247,0.7231,0.7222,0.7214,0.7205,0.7179,0.7167,0.7168,0.7156,0.7166,0.7166,0.7162,0.7112,0.7109,0.7176,0.7176,0.7176,0.7176,0.7176,0.7176,0.7375,0.738,0.7362,0.736,0.7344,0.7338,0.7331,0.732,0.7306,0.7298,0.729,0.7273,0.7252,0.7239,0.7229,0.7222,0.7218,0.7233,0.7221,0.7174,0.7166,0.7159,0.7156,0.7232,0.7233,0.7272,0.7273,0.7273]}]]